Simultaneous Nadir Overpasses (SNOs) Predictions

Prediction of SNOs between GOES-17 and TERRA Satellite Orbit:

Table of predicted SNOs for the next 14.0 days since TLE Epoch: 9/2/2023
Index Date Time (GOES-17) GOES-17 Lat,Lon TERRA Lat,Lon Distance(km) Time Diff (sec)
1 09/02/2023 16:47:25 -0.00,-104.71 -0.76,-101.06 414.77 80
2 09/03/2023 05:07:44 0.00,-104.69 -0.28,-106.00 148.26 80
3 09/05/2023 04:48:39 -0.00,-104.70 0.54,-102.03 302.54 80
4 09/05/2023 17:08:48 0.00,-104.71 0.50,-106.93 252.63 80
5 09/07/2023 16:55:03 -0.00,-104.72 -0.35,-102.97 198.31 80
6 09/08/2023 05:15:22 0.00,-104.70 -0.68,-107.91 364.25 80
7 09/10/2023 04:56:17 0.01,-104.71 0.18,-103.95 86.67 80
8 09/10/2023 17:16:27 -0.01,-104.72 0.83,-108.85 468.95 80
9 09/12/2023 17:00:01 -0.01,-104.73 0.00,-104.88 17.36 80
10 09/14/2023 16:46:14 -0.01,-104.73 -0.78,-100.90 434.96 80
11 09/15/2023 05:06:33 0.01,-104.73 -0.25,-105.84 126.95 80
